Edwards AFB, CA

3:37 AM PDT on May 28, 2017 (GMT -0700)
Edwards Air Force Base

Weather History for KEDW - March, 2013

Change the Weather History Date:

Saturday, March 9, 2013

  Actual Average Record
Temperature  
Mean Temperature 47 °F -  
Max Temperature 57 °F 65 °F 80 °F (1997)
Min Temperature 35 °F 36 °F 24 °F (2002)
Degree Days  
Heating Degree Days 18    
Moisture  
Dew Point 34 °F    
Average Humidity 69    
Maximum Humidity 100    
Minimum Humidity 35    
Precipitation  
Precipitation 0.00 in - - ()
Sea Level Pressure  
Sea Level Pressure 30.08 in    
Wind  
Wind Speed 13 mph (WSW)    
Max Wind Speed 21 mph    
Max Gust Speed 25 mph    
Visibility 10 miles    
Events      
Averages and records for this station are not official NWS values.
T = Trace of Precipitation, MM = Missing Value Source: NWS Daily Summary

Daily Weather History Graph

Daily Weather History Graph

Search for Another Location

Airport or City:

Trip Planner

Search our weather history database for the weather conditions in past years. The results will help you decide how hot, cold, wet, or windy it might be!

Date:

Astronomy

Mar. 09, 2013 Rise Set
Actual Time 6:09 AM PST 5:54 PM PST
Civil Twilight 5:44 AM PST 6:19 PM PST
Nautical Twilight 5:15 AM PST 6:49 PM PST
Astronomical Twilight 4:46 AM PST 7:18 PM PST
Moon 4:32 AM PST (3/9) 4:04 PM PST (3/9)
Length of Visible Light 12h 35m
Length of Day
11h 44m
Waning Crescent, 5% of the Moon is Illuminated
Mar 9
Waning Crescent
Mar 11
New
Mar 19
First Quarter
Mar 27
Full
Apr 2
Last Quarter

Hourly Weather History & Observations

Time (PST) Temp. Windchill Dew Point Humidity Pressure Visibility Wind Dir Wind Speed Gust Speed Precip Events Conditions
12:58 AM 39.4 °F 32.3 °F 38.1 °F 95% 29.97 in 10.0 mi SW 11.5 mph - N/A   Clear
1:38 AM 39.2 °F 32.0 °F 39.2 °F 100% 29.96 in 10.0 mi SW 11.5 mph - N/A   Mostly Cloudy
1:58 AM 39.7 °F 32.7 °F 39.0 °F 97% 29.98 in 10.0 mi SW 11.5 mph - N/A   Overcast
2:53 AM 39.2 °F 32.0 °F 39.2 °F 100% 29.95 in 10.0 mi SW 11.5 mph - N/A   Scattered Clouds
2:58 AM 39.0 °F 32.3 °F 38.8 °F 99% 29.98 in 10.0 mi SW 10.4 mph - N/A   Scattered Clouds
3:58 AM 38.8 °F 30.0 °F 38.1 °F 97% 29.99 in 10.0 mi West 16.1 mph - N/A   Clear
4:58 AM 37.9 °F 30.5 °F 36.9 °F 96% 30.01 in 10.0 mi WSW 11.5 mph - N/A   Clear
5:58 AM 40.3 °F 33.4 °F 36.7 °F 87% 30.02 in 90.0 mi West 11.5 mph - N/A   Partly Cloudy
6:58 AM 37.9 °F 30.9 °F 35.8 °F 92% 30.04 in 90.0 mi SSW 10.4 mph - N/A   Scattered Clouds
7:58 AM 42.1 °F 35.7 °F 37.4 °F 83% 30.07 in 90.0 mi SSW 11.5 mph - N/A   Partly Cloudy
8:58 AM 48.0 °F - 37.4 °F 67% 30.08 in 90.0 mi SSW 10.4 mph - N/A   Partly Cloudy
9:58 AM 52.2 °F - 35.1 °F 52% 30.08 in 90.0 mi WNW 13.8 mph - N/A   Partly Cloudy
10:58 AM 55.2 °F - 32.7 °F 43% 30.08 in 90.0 mi West 17.3 mph 20.7 mph N/A   Partly Cloudy
11:58 AM 56.5 °F - 30.7 °F 38% 30.08 in 90.0 mi West 15.0 mph - N/A   Partly Cloudy
12:58 PM 57.0 °F - 30.4 °F 36% 30.08 in 80.0 mi West 18.4 mph - N/A   Scattered Clouds
1:06 PM 57.2 °F - 32.0 °F 38% 30.07 in 80.0 mi WNW 18.4 mph 25.3 mph N/A   Scattered Clouds
1:58 PM 57.9 °F - 30.2 °F 35% 30.06 in 80.0 mi WNW 20.7 mph 25.3 mph N/A   Scattered Clouds
2:58 PM 57.2 °F - 30.9 °F 37% 30.08 in 80.0 mi WNW 18.4 mph - N/A   Scattered Clouds
3:58 PM 57.7 °F - 31.8 °F 37% 30.08 in 70.0 mi WNW 17.3 mph - N/A   Scattered Clouds
4:58 PM 53.8 °F - 31.5 °F 43% 30.10 in 60.0 mi WNW 16.1 mph - N/A   Scattered Clouds
5:58 PM 50.2 °F - 31.3 °F 48% 30.13 in 50.0 mi West 17.3 mph - N/A   Scattered Clouds
6:58 PM 46.8 °F - 32.0 °F 57% 30.17 in 10.0 mi WSW 10.4 mph - N/A   Clear
7:58 PM 44.6 °F 40.7 °F 32.5 °F 63% 30.18 in 10.0 mi SW 6.9 mph - N/A   Clear
8:58 PM 41.9 °F 36.3 °F 33.4 °F 72% 30.22 in 10.0 mi South 9.2 mph - N/A   Clear
9:58 PM 40.8 °F 35.6 °F 33.1 °F 74% 30.22 in 10.0 mi SSW 8.1 mph - N/A   Clear
10:58 PM 37.6 °F 33.1 °F 32.9 °F 83% 30.23 in 10.0 mi SW 5.8 mph - N/A   Clear
11:58 PM 35.2 °F 28.8 °F 32.4 °F 89% 30.24 in 10.0 mi SSW 8.1 mph - N/A   Clear